User: anonymous   Login
Location: Petruro
(41.0333°N, 14.7833°E)
Time: 18:28:03
(UTC+00:00)
Language:

Alouette 2 Rocket - Orbit

View from above orbital plane
View from above orbital plane
View from above satellite
View from above satellite

Ground track
Ground track

The orbit data is extracted from the following two-line orbital elements,

1  1807U 65098C   21270.27637734  .00000192  00000-0  66320-4 0  9998
2  1807  79.8368  57.2765 1350071 276.6532  68.3086 12.23887047461676
Epoch (UTC): 27 September 2021 06:37:59
Eccentricity: 0.1350071
inclination: 79.8368°
perigee height: 502 km
apogee height: 2649 km
right ascension of ascending node: 57.2765°
argument of perigee: 276.6532°
revolutions per day: 12.23887047
mean anomaly at epoch: 68.3086°
orbit number at epoch: 46167

The dashed part of the orbit path shows where the satellite is in the earth's shadow,  

DLR